This is the latest recevied weather packets stored in our database for station/object F4IVW-13. If no packets are shown the sender has not sent any weather packets the latest 10 day(s).
| Time | Temp. | Humidity | Pressure | Rain* | Wind** | Luminosity | Snow |
|---|---|---|---|---|---|---|---|
| 1777877981 | 13.89° C | 99% | 1012.7 hPa | 0 mm | - | 6 W/m² | - |
| 1777874803 | 12.78° C | 99% | 1012.7 hPa | 0 mm | - | 1 W/m² | - |
| 1777874480 | 12.22° C | 99% | 1012.6 hPa | 0 mm | - | 1 W/m² | - |
| 1777874163 | 11.67° C | 99% | 1012.5 hPa | 0 mm | - | 1 W/m² | - |
| 1777873845 | 11.67° C | 99% | 1012.5 hPa | 0 mm | - | 0 W/m² | - |
| 1777873524 | 11.67° C | 99% | 1012.4 hPa | 0 mm | - | 0 W/m² | - |
| 1777872573 | 11.67° C | 99% | 1012.4 hPa | 0 mm | - | 0 W/m² | - |
| 1777871949 | 11.67° C | 99% | 1012.3 hPa | 0 mm | - | 0 W/m² | - |
| 1777871616 | 11.67° C | 99% | 1012.3 hPa | 0 mm | - | 0 W/m² | - |
| 1777871304 | 11.67° C | 99% | 1012.3 hPa | 0 mm | - | 0 W/m² | - |
| 1777870990 | 11.67° C | 99% | 1012.2 hPa | 0 mm | - | 0 W/m² | - |
| 1777870666 | 11.67° C | 99% | 1012.2 hPa | 0 mm | - | 0 W/m² | - |
| 1777870339 | 12.22° C | 99% | 1012.2 hPa | 0 mm | - | 0 W/m² | - |
| 1777870031 | 12.22° C | 99% | 1012.2 hPa | 0 mm | - | 0 W/m² | - |
| 1777869704 | 11.67° C | 99% | 1012.2 hPa | 0 mm | - | 0 W/m² | - |
| 1777869391 | 11.67° C | 99% | 1012.2 hPa | 0 mm | - | 0 W/m² | - |
| 1777869073 | 11.67° C | 99% | 1012.2 hPa | 0 mm | - | 0 W/m² | - |
| 1777868437 | 12.22° C | 99% | 1012.2 hPa | 0 mm | - | 0 W/m² | - |
| 1777868117 | 12.22° C | 99% | 1012.1 hPa | 0 mm | - | 0 W/m² | - |
| 1777867809 | 12.22° C | 99% | 1012.2 hPa | 0 mm | - | 0 W/m² | - |
| 1777867485 | 12.78° C | 99% | 1012.2 hPa | 0 mm | - | 0 W/m² | - |
| 1777866846 | 12.78° C | 99% | 1012.3 hPa | 0 mm | - | 0 W/m² | - |
| 1777866213 | 12.78° C | 99% | 1012.3 hPa | 0.25 mm | - | 0 W/m² | - |
| 1777865892 | 13.33° C | 99% | 1012.5 hPa | 0.25 mm | - | 0 W/m² | - |
| 1777865578 | 13.33° C | 99% | 1012.4 hPa | 0.25 mm | - | 0 W/m² | - |
* Rain latest hour (hover to see other rain measurements)
** Current wind speed in m/s (hover to see current wind gust speed)